TITAN 3C TRANSTAGE DEB, 20102

Orbit data source: Space-Track

TITAN 3C TRANSTAGE DEB, 20102 is space debris in HEO originally from a launch on Tue, 21 Dec 1965 UTC launched from the Air Force Eastern Test Range (AFETR). Debris objects in space refer to the collection of defunct objects orbiting the Earth. Examples of debris include non-operational satellites, rocket bodies, and fragments generated from explosions, collisions, or faulty payload assembly.

Loading next visibility...
Identifier
20102, 1965-108AC
Orbit
HEO
Country
Flag of USUS
Related business
Manufacturer
Unknown
Mission
Spacecraft
Bus & Motor
Unknown
Mass
Unknown
Launch date (UTC)
1965-12-21 (60 years ago)
Launch vehicle
Unknown
Launch site
Air Force Eastern Test Range (AFETR)
Object type
Payload
Rocket body
Debris
Shape & HBR
Unknown shape, 0.1 m
Radar Cross Section
Small (<0.1 m²)

Expand to show TLE details & history
Last TLE update: 5 days ago

TLE from 5 days ago
0 TITAN 3C TRANSTAGE DEB
1 20102U 65108AC  26126.23305581 -.00000052  00000-0 -23319-4 0  9990
2 20102  26.8584  83.1308 6764426 181.2435 352.9790  2.75679761319370
Epoch: 2026-05-06T05:35Z
TLE epoch observation values (Epoch: 2026-05-06T05:35:36.021Z)
Latitude
18.16896°
Longitude
-85.05515°
Altitude
1,479.834 km
Speed
9.106 km/s
True Right ascension
14h 51m 45s
True Declination
18° 04' 36"
Sunlit
Object was in full shadow at epoch
Visualization orbit readout
Latitude
Unknown
Longitude
Unknown
Altitude
Unknown
Speed
Unknown
Apparent Right ascension
Unknown
Apparent Declination
Unknown
Sunlit
N/A
Visualization observer readout
Local Sidereal Time
23:42:44
Azimuth
Unknown
Elevation
Unknown
Doppler factor
Unknown
Orbital elements
Apogee altitude
29,645.938 km
Perigee altitude
574.595 km
Semi-major axis
21,488.404 km
Eccentricity
0.67644
Inclination
26.8584°
RAAN
83.1308°
Arg. of periapsis
181.2435°
True anomaly
314.73998°
Mean anomaly
352.979°
Eccentric anomaly
339.24356°
Mean motion
0.68903 °/min
Orbital period
522.48 mins
BSTAR
-0.000023319
Loading maneuver chart data...
Computing Atmospheric mass density...

Documentation

Showing up to 5 results
|